Torna al catalogo

STARLINK-34380

AttivoComunicazioniVLEO
NORAD 64307·PAYLOAD·🇺🇸 United States

Lanciato Jun 8, 2025 da Vandenberg Space Force Base

Loading…

Prossimi Passaggi (prossime 24 ore)

TLE

AggiornatoSource: CelesTrak SupGP

Epoca: Sep 15, 2026, 03:12 UTC

1 64307C 25123S   26258.13381944 -.00046483  00000+0 -16178-2 0  2588
2 64307  69.9998  75.1283 0003200 271.5174 222.2200 15.29587435    10

Traccia STARLINK-34380 in tempo reale con AllMySat

Download on the App Store